[[{"header":{"parameterUnit":"m.s-1","parameterCategory":1,"la1":30.2991,"la2":30.254,"lo1":-89.0895,"lo2":-89.0444,"dy":0.0017,"dx":0.0017,"nx":28,"ny":28,"refTime":"2023-10-09T09:00:00:Z","depth":0,"parameterNumber":2,"parameterNumberName":"U-component_of_WINDS"},"data":[0,0,0,0,0,0,0,0,0,0,0,0,0,0,0,0,0,0,0,0,0,0,0,0,0,0,0,0,0,0,0,0,0,0,0,0,0,0,0,0,0,0,0,0,0,0,0,0,0,0,0,0,0,0,0,0,0,0,-2.0945,-2.0945,0,-2.0915,-2.0915,-2.0914,-2.0848,-2.0846,-2.0845,-2.0843,-2.0814,-2.0815,-2.0815,0,0,0,0,0,0,0,0,0,0,0,0,0,-2.0947,-2.0947,-2.0945,-2.0945,-2.0944,-2.0915,-2.0915,-2.0914,-2.0848,-2.0846,-2.0844,-2.0843,-2.0814,-2.0815,-2.0815,0,0,0,0,0,0,0,0,0,0,0,0,0,-2.0935,-2.0948,-2.0945,-2.0908,-2.0904,-2.0915,-2.0915,-2.0914,-2.0848,-2.0846,-2.0844,-2.0842,-2.0814,-2.0815,-2.0815,-2.0861,0,0,-2.0818,-2.0818,0,0,0,0,0,0,0,0,-2.0936,-2.0935,-2.0914,-2.091,-2.0906,-2.0883,-2.0905,-2.0896,-2.0849,-2.0869,-2.0843,-2.0841,-2.0839,-2.0837,-2.0836,-2.086,-2.0859,-2.0818,-2.0818,-2.0819,-2.0819,0,0,0,0,0,0,0,-2.0936,-2.0936,-2.0933,-2.0913,-2.0909,-2.0893,-2.0889,-2.0903,-2.0866,-2.0867,-2.0862,-2.086,-2.0836,-2.0836,-2.0835,-2.0858,-2.0818,-2.0818,-2.0819,-2.0819,-2.0918,-2.092,0,0,0,0,0,0,-2.0942,-2.0937,-2.0934,-2.0932,-2.0916,-2.0895,-2.089,-2.0892,-2.0866,-2.086,-2.0862,-2.0857,-2.0836,-2.0834,-2.0834,-2.0886,-2.0819,-2.0819,-2.082,-2.0916,-2.0919,-2.0921,0,0,0,0,0,0,-2.0943,-2.0943,-2.0935,-2.0933,-2.0931,-2.0897,-2.09,-2.0893,-2.0892,-2.0861,-2.0855,-2.0867,-2.0834,-2.0833,-2.0855,-2.0884,-2.082,-2.082,-2.0913,-2.0917,-2.092,-2.099,0,0,0,0,0,0,-2.0943,-2.0943,-2.096,-2.0934,-2.0931,-2.0956,-2.0902,-2.0894,-2.0893,-2.0887,-2.0865,-2.0859,-2.0832,-2.0854,-2.0856,-2.0884,-2.0821,-2.0911,-2.0915,-2.0919,-2.0985,-2.0995,-2.1004,0,0,0,0,0,-2.0943,-2.0981,-2.0961,-2.0961,-2.0951,-2.0958,-2.0957,-2.0924,-2.0896,-2.0913,-2.0893,-2.086,-2.0881,-2.0857,-2.0858,-2.0887,-2.0909,-2.0914,-2.0918,-2.0981,-2.0993,-2.1004,0,0,0,0,0,0,-2.1012,-2.0977,-2.0954,-2.0985,-2.0975,-2.0947,-2.0967,-2.0938,-2.0937,-2.0931,-2.0891,-2.0887,-2.0914,-2.0903,-2.0877,-2.093,-2.0889,-2.0895,-2.0936,-2.0948,-2.0957,-2.0959,-2.0821,0,0,0,0,0,-2.103,-2.1038,-2.1008,-2.1037,-2.1034,-2.1001,-2.1003,-2.0979,-2.0967,-2.0963,-2.0945,-2.0935,-2.094,-2.0943,-2.0945,-2.0983,-2.0978,-2.1004,-2.1013,-2.1021,-2.1026,-2.1046,-2.1057,-2.0937,-2.0937,-2.0937,0,0,-2.1068,-2.1051,-2.1058,-2.1051,-2.104,-2.105,-2.0998,-2.1011,-2.1018,-2.0965,-2.0984,-2.0971,-2.0958,-2.0988,-2.1001,-2.098,-2.1058,-2.1028,-2.1034,-2.1035,-2.1052,-2.1064,-2.1074,-2.094,-2.094,-2.0939,0,0,-2.1143,-2.113,-2.1154,-2.1144,-2.1129,-2.1108,-2.1114,-2.109,-2.1079,-2.1098,-2.1059,-2.1067,-2.1075,-2.1067,-2.1065,-2.1138,-2.1108,-2.114,-2.119,-2.1209,-2.1219,-2.1227,-2.1253,-2.1263,-2.1145,-2.1145,-2.1145,0,-2.1193,-2.1205,-2.117,-2.1185,-2.1183,-2.1135,-2.1159,-2.1152,-2.1139,-2.1139,-2.1115,-2.1125,-2.1113,-2.1141,-2.1159,-2.1158,-2.1164,-2.1142,-2.122,-2.1228,-2.1235,-2.126,-2.127,-2.1149,-2.1149,-2.1148,-2.1148,0,-2.1267,-2.1277,-2.1298,-2.1285,-2.1286,-2.1306,-2.1274,-2.1279,-2.1255,-2.1236,-2.1256,-2.124,-2.1239,-2.1244,-2.1221,-2.1269,-2.1256,-2.1227,-2.1185,-2.1251,-2.1273,-2.1283,-2.1155,-2.1153,-2.1152,-2.1151,0,0,-2.1383,-2.1352,-2.136,-2.1354,-2.1334,-2.1341,-2.1359,-2.1357,-2.1362,-2.1355,-2.1369,-2.1378,-2.1351,-2.1348,-2.1323,-2.1341,-2.14,-2.1309,-2.1308,-2.1327,-2.1452,-2.1474,-2.1486,-2.138,-2.1382,-2.1383,-2.1453,0,-2.1453,-2.1481,-2.145,-2.1484,-2.1493,-2.1449,-2.1464,-2.1454,-2.1438,-2.1443,-2.1425,-2.1431,-2.1395,-2.1393,-2.1408,-2.139,-2.1425,-2.1384,-2.1393,-2.1394,-2.1398,-2.1497,-2.152,-2.1587,-2.1462,-2.1463,-2.1464,0,-2.1538,-2.1535,-2.157,-2.1548,-2.1551,-2.1565,-2.1561,-2.1567,-2.1555,-2.1542,-2.1539,-2.151,-2.1526,-2.1486,-2.1509,-2.1482,-2.1485,-2.1476,-2.1478,-2.1477,-2.1433,-2.1499,-2.1608,-2.1618,-2.1478,-2.1477,-2.1476,0,-2.162,-2.1624,-2.1645,-2.1642,-2.1617,-2.1628,-2.1619,-2.1605,-2.1606,-2.1603,-2.1603,-2.1602,-2.1602,-2.1602,-2.1574,-2.1547,-2.16,-2.1558,-2.159,-2.1591,-2.1603,-2.1602,-2.1713,-2.1605,-2.1605,-2.1605,-2.1604,0,-2.1701,-2.1725,-2.1682,-2.1695,-2.172,-2.1685,-2.1711,-2.1697,-2.1685,-2.1695,-2.1657,-2.1668,-2.163,-2.1637,-2.1615,-2.1638,-2.1638,-2.1628,-2.1622,-2.1631,-2.1633,-2.1632,-2.1626,-2.1607,-2.1607,-2.1606,-2.1606,0,-2.1796,-2.1768,-2.1789,-2.1764,-2.1758,-2.1778,-2.1757,-2.1768,-2.1749,-2.1763,-2.1764,-2.1735,-2.1741,-2.1713,-2.1715,-2.17,-2.1734,-2.172,-2.1738,-2.1733,-2.1767,-2.1764,-2.1881,-2.1895,-2.1778,-2.1779,-2.178,0,-2.1849,-2.1866,-2.1843,-2.1847,-2.1839,-2.1846,-2.1847,-2.1813,-2.1815,-2.1804,-2.1817,-2.182,-2.1821,-2.1833,-2.1812,-2.1813,-2.1799,-2.184,-2.1799,-2.1808,-2.18,-2.1799,-2.1801,-2.1849,-2.185,-2.1851,-2.1852,0,-2.1948,-2.1933,-2.1935,-2.1933,-2.1935,-2.1932,-2.1926,-2.1931,-2.1895,-2.19,-2.1905,-2.1906,-2.1908,-2.1911,-2.1908,-2.1899,-2.187,-2.1865,-2.1873,-2.1883,-2.1892,-2.1888,-2.1761,-2.1863,-2.1862,-2.1861,-2.186,-2.186,-2.2023,-2.2037,-2.2022,-2.2026,-2.2018,-2.2014,-2.2024,-2.2006,-2.201,-2.2008,-2.1988,-2.1998,-2.1986,-2.1979,-2.1973,-2.198,-2.1961,-2.1972,-2.1975,-2.1978,-2.1984,-2.1891,-2.198,-2.1979,-2.1979,-2.1979,-2.1979,0,-2.212,-2.2108,-2.2112,-2.2105,-2.2109,-2.208,-2.2073,-2.2078,-2.2086,-2.2078,-2.2079,-2.2086,-2.209,-2.2069,-2.207,-2.2081,-2.2067,-2.2082,-2.2081,-2.2079,-2.2001,-2.1994,-2.2093,-2.2093,-2.2093,-2.2093,-2.2093,-2.2093,-2.217,-2.2191,-2.2175,-2.2192,-2.218,-2.2189,-2.2187,-2.2183,-2.2176,-2.2185,-2.2188,-2.2174,-2.2161,-2.2161,-2.2164,-2.2158,-2.216,-2.2179,-2.2169,-2.2096,-2.2085,-2.2074,-2.2068,-2.218,-2.218,-2.2246,-2.2247,-2.2247]},{"header":{"parameterUnit":"m.s-1","parameterCategory":1,"la1":30.2991,"la2":30.254,"lo1":-89.0895,"lo2":-89.0444,"dy":0.0017,"dx":0.0017,"nx":28,"ny":28,"refTime":"2023-10-09T09:00:00:Z","depth":0,"parameterNumber":3,"parameterNumberName":"V-component_of_WINDS"},"data":[0,0,0,0,0,0,0,0,0,0,0,0,0,0,0,0,0,0,0,0,0,0,0,0,0,0,0,0,0,0,0,0,0,0,0,0,0,0,0,0,0,0,0,0,0,0,0,0,0,0,0,0,0,0,0,0,0,0,2.2441,2.2441,0,2.2408,2.2408,2.2407,2.2394,2.2394,2.2394,2.2394,2.2356,2.2355,2.2354,0,0,0,0,0,0,0,0,0,0,0,0,0,2.249,2.2489,2.2441,2.2441,2.2441,2.2408,2.2408,2.2407,2.2394,2.2394,2.2394,2.2394,2.2356,2.2355,2.2354,0,0,0,0,0,0,0,0,0,0,0,0,0,2.2464,2.2489,2.2441,2.243,2.2429,2.2408,2.2408,2.2407,2.2394,2.2394,2.2394,2.2394,2.2357,2.2355,2.2354,2.234,0,0,2.2348,2.2348,0,0,0,0,0,0,0,0,2.2465,2.2462,2.2432,2.2431,2.2429,2.2405,2.2411,2.2384,2.2394,2.2407,2.2394,2.2395,2.2372,2.2369,2.2362,2.2338,2.2337,2.2348,2.2347,2.2347,2.2346,0,0,0,0,0,0,0,2.2467,2.2463,2.2428,2.2432,2.243,2.2426,2.2422,2.2406,2.2389,2.2406,2.2405,2.2401,2.2371,2.2364,2.2361,2.2336,2.2348,2.2347,2.2346,2.2345,2.23,2.2299,0,0,0,0,0,0,2.2471,2.2465,2.2429,2.2427,2.2448,2.2425,2.2421,2.2413,2.2389,2.2386,2.2401,2.2401,2.2367,2.2363,2.236,2.2343,2.2347,2.2345,2.2344,2.23,2.23,2.2299,0,0,0,0,0,0,2.2472,2.2468,2.243,2.2446,2.2441,2.2424,2.2415,2.2412,2.2405,2.2386,2.2382,2.2397,2.2367,2.2362,2.2346,2.2341,2.2344,2.2343,2.23,2.23,2.23,2.2309,0,0,0,0,0,0,2.2474,2.2469,2.2464,2.2446,2.244,2.2418,2.2415,2.2411,2.2403,2.2402,2.2381,2.2378,2.2367,2.2348,2.2344,2.2339,2.2341,2.23,2.23,2.23,2.2309,2.2309,2.2309,0,0,0,0,0,2.2476,2.2467,2.2464,2.246,2.2434,2.2418,2.2414,2.2403,2.2402,2.2397,2.2385,2.2378,2.2343,2.2347,2.2342,2.2336,2.2301,2.23,2.23,2.2309,2.2309,2.2309,0,0,0,0,0,0,2.2484,2.2465,2.2461,2.2447,2.2434,2.2415,2.2409,2.2403,2.2389,2.2389,2.2374,2.2369,2.2354,2.2343,2.2348,2.2322,2.2321,2.232,2.233,2.233,2.233,2.2332,2.234,0,0,0,0,0,2.2485,2.2474,2.2457,2.2446,2.244,2.2426,2.2418,2.241,2.2396,2.239,2.2377,2.2362,2.2347,2.2338,2.2323,2.2307,2.2302,2.2301,2.2301,2.2302,2.23,2.2291,2.229,2.2298,2.2298,2.2298,0,0,2.2485,2.2473,2.2467,2.2447,2.2437,2.2425,2.2421,2.2408,2.2399,2.2388,2.2372,2.2361,2.2343,2.2327,2.2319,2.2318,2.2297,2.2301,2.2301,2.23,2.229,2.229,2.2289,2.2298,2.2298,2.2298,0,0,2.248,2.247,2.246,2.245,2.2434,2.2425,2.2422,2.2405,2.2398,2.2382,2.2373,2.2361,2.2336,2.2324,2.2315,2.2306,2.2299,2.2301,2.2301,2.2293,2.2292,2.2291,2.2288,2.2287,2.23,2.23,2.23,0,2.2482,2.2465,2.2455,2.2443,2.2434,2.2425,2.2414,2.2404,2.2384,2.2378,2.2378,2.2347,2.2334,2.2315,2.2313,2.2306,2.2302,2.2303,2.2293,2.2292,2.2292,2.2288,2.2287,2.2301,2.2301,2.2301,2.2301,0,2.2468,2.2456,2.245,2.2432,2.2423,2.2412,2.2399,2.239,2.2384,2.2374,2.2358,2.2343,2.2325,2.232,2.2313,2.23,2.23,2.2296,2.2295,2.2291,2.2288,2.2286,2.2301,2.2301,2.2301,2.2301,0,0,2.2466,2.2444,2.2442,2.2434,2.2417,2.2407,2.2395,2.2379,2.2372,2.2359,2.2348,2.2328,2.2325,2.2314,2.2306,2.2298,2.2292,2.2295,2.2295,2.2295,2.2276,2.2278,2.2277,2.2287,2.2287,2.2287,2.2277,0,2.2458,2.2437,2.2428,2.2412,2.2401,2.2392,2.2382,2.2369,2.236,2.2348,2.2337,2.2323,2.2321,2.2314,2.2307,2.2294,2.2287,2.2295,2.2276,2.2275,2.228,2.2275,2.2277,2.2268,2.2276,2.2275,2.2275,0,2.2445,2.2434,2.2416,2.2401,2.2396,2.2387,2.2372,2.2361,2.2347,2.2341,2.233,2.2322,2.2308,2.2308,2.2288,2.2293,2.2285,2.2278,2.2277,2.2274,2.2275,2.2271,2.2265,2.2264,2.2273,2.2273,2.2273,0,2.2445,2.2425,2.2412,2.2406,2.2388,2.2381,2.2373,2.2359,2.235,2.2337,2.2331,2.2316,2.2307,2.2295,2.2283,2.2284,2.2264,2.2263,2.2257,2.2258,2.2253,2.2253,2.2245,2.2249,2.2249,2.2249,2.2249,0,2.2437,2.2426,2.2412,2.2404,2.2392,2.2382,2.2369,2.236,2.2348,2.2337,2.2329,2.2319,2.2303,2.2291,2.2281,2.2266,2.2262,2.2256,2.2253,2.2257,2.2257,2.225,2.225,2.2248,2.2248,2.2248,2.2249,0,2.2434,2.2425,2.241,2.2394,2.239,2.2382,2.2368,2.2359,2.235,2.2337,2.2333,2.2318,2.2303,2.229,2.227,2.2263,2.2248,2.2245,2.2253,2.2252,2.2247,2.2247,2.2233,2.2231,2.2237,2.2237,2.2236,0,2.2429,2.2421,2.2406,2.2399,2.2391,2.238,2.2371,2.2361,2.2352,2.2335,2.2329,2.2314,2.2301,2.2277,2.2264,2.2248,2.2244,2.2241,2.2242,2.2245,2.2244,2.2244,2.2243,2.224,2.224,2.224,2.224,0,2.2421,2.2417,2.2406,2.2394,2.2384,2.2374,2.2362,2.2357,2.2344,2.2334,2.232,2.231,2.2291,2.2275,2.2259,2.2249,2.2242,2.2241,2.2238,2.2241,2.2246,2.2243,2.2253,2.224,2.224,2.224,2.224,2.224,2.2417,2.241,2.2398,2.2386,2.2377,2.2367,2.2358,2.2349,2.2337,2.2321,2.2315,2.23,2.2286,2.2263,2.2253,2.2241,2.224,2.2236,2.2236,2.2235,2.2235,2.2249,2.2238,2.2238,2.2238,2.2238,2.2238,0,2.2408,2.24,2.239,2.2375,2.2366,2.2362,2.235,2.2342,2.2329,2.2317,2.2306,2.2289,2.2274,2.226,2.2245,2.2237,2.2234,2.2234,2.2234,2.2231,2.2237,2.2241,2.2237,2.2237,2.2237,2.2237,2.2237,2.2237,2.2402,2.239,2.2384,2.2367,2.2359,2.2346,2.2339,2.2329,2.232,2.2302,2.2291,2.2282,2.2269,2.2253,2.2239,2.2235,2.223,2.223,2.2225,2.2231,2.2231,2.2231,2.2234,2.2229,2.2229,2.222,2.222,2.222]}]]